QPF
0.12 0.08 0.09 0.07 0.05 0.04 0.03 0.03 0.05 0.07 0.06 0.07 0.09 0.13 0.16 0.18 0.17 0.13 0.13 0.16 0.20 0.27 0.39 0.44 0.36 0.27 0.25 0.26 0.22 0.15 0.12 0.09 0.08 0.07 0.06 0.06 0.06 0.06 0.06 0.05 0.02 0.01 0.02
0.07 0.07 0.09 0.07 0.05 0.03 0.03 0.03 0.04 0.04 0.04 0.05 0.05 0.05 0.07 0.11 0.14 0.12 0.11 0.12 0.17 0.25 0.25 0.21 0.17 0.14 0.14 0.14 0.14 0.13 0.10 0.08 0.08 0.06 0.07 0.05 0.05 0.05 0.06 0.05 0.01 0.02 0.02
0.03 0.03 0.05 0.04 0.03 0.02 0.03 0.03 0.03 0.02 0.02 0.04 0.03 0.04 0.05 0.07 0.09 0.10 0.11 0.12 0.20 0.25 0.19 0.14 0.11 0.12 0.13 0.13 0.10 0.09 0.08 0.08 0.08 0.06 0.05 0.02 0.03 0.05 0.04 0.05 0.04 0.03 0.02
0.06 0.01 0.01 0.02 0.02 0.02 0.03 0.03 0.03 0.02 0.02 0.03 0.04 0.06 0.06 0.06 0.07 0.08 0.09 0.14 0.20 0.20 0.19 0.13 0.12 0.13 0.11 0.10 0.07 0.06 0.06 0.06 0.06 0.05 0.02 0.01 0.02 0.03 0.03 0.02 0.04 0.03 0.01
0.04 0.01 0.01 0.02 0.02 0.02 0.02 0.01 0.01 0.01 0.02 0.03 0.05 0.04 0.04 0.06 0.07 0.07 0.06 0.06 0.09 0.14 0.16 0.12 0.11 0.11 0.09 0.07 0.06 0.06 0.06 0.06 0.05 0.04 0.02 0.02 0.01 0.02 0.03 0.02 0.03 0.03 0.02
0.04 0.01 0.00 0.01 0.01 0.01 0.01 0.01 0.01 0.01 0.01 0.02 0.03 0.03 0.02 0.03 0.04 0.04 0.03 0.03 0.05 0.11 0.12 0.11 0.11 0.09 0.06 0.06 0.06 0.05 0.07 0.07 0.07 0.04 0.03 0.02 0.01 0.02 0.03 0.02 0.02 0.02 0.02
0.01 0.00 0.00 0.01 0.01 0.01 0.01 0.00 0.01 0.01 0.01 0.01 0.02 0.02 0.03 0.04 0.03 0.03 0.03 0.04 0.05 0.09 0.12 0.14 0.13 0.09 0.05 0.05 0.05 0.06 0.07 0.08 0.06 0.04 0.02 0.02 0.02 0.03 0.03 0.02 0.02 0.02 0.02
0.01 0.01 0.00 0.01 0.01 0.00 0.00 0.01 0.01 0.01 0.01 0.01 0.02 0.02 0.03 0.04 0.04 0.03 0.03 0.04 0.05 0.08 0.11 0.11 0.08 0.05 0.04 0.04 0.05 0.05 0.06 0.05 0.03 0.03 0.02 0.02 0.02 0.02 0.03 0.02 0.02 0.02 0.02
0.02 0.01 0.00 0.00 0.00 0.01 0.01 0.01 0.01 0.01 0.02 0.02 0.02 0.03 0.03 0.03 0.03 0.03 0.03 0.03 0.03 0.03 0.04 0.04 0.04 0.04 0.04 0.03 0.04 0.05 0.06 0.07 0.04 0.03 0.03 0.02 0.02 0.02 0.03 0.02 0.02 0.03 0.02
0.02 0.03 0.02 0.01 0.00 0.00 0.01 0.01 0.02 0.01 0.02 0.03 0.03 0.03 0.03 0.03 0.02 0.02 0.02 0.02 0.02 0.02 0.02 0.03 0.03 0.02 0.03 0.03 0.04 0.05 0.06 0.05 0.04 0.03 0.02 0.01 0.02 0.02 0.03 0.03 0.03 0.02 0.02
0.03 0.04 0.05 0.03 0.02 0.02 0.01 0.01 0.02 0.02 0.03 0.04 0.04 0.05 0.04 0.03 0.03 0.03 0.03 0.04 0.03 0.03 0.03 0.03 0.04 0.04 0.04 0.04 0.05 0.06 0.07 0.04 0.04 0.04 0.02 0.02 0.03 0.04 0.06 0.04 0.03 0.02 0.02
0.03 0.04 0.05 0.04 0.03 0.03 0.02 0.03 0.04 0.02 0.02 0.04 0.03 0.04 0.04 0.05 0.03 0.03 0.04 0.06 0.05 0.05 0.05 0.05 0.06 0.06 0.04 0.03 0.05 0.07 0.06 0.04 0.03 0.04 0.03 0.03 0.03 0.05 0.05 0.03 0.03 0.02 0.02
0.03 0.02 0.03 0.04 0.03 0.04 0.06 0.06 0.05 0.03 0.03 0.04 0.04 0.03 0.05 0.05 0.04 0.04 0.04 0.05 0.05 0.05 0.04 0.04 0.06 0.05 0.04 0.04 0.04 0.05 0.05 0.07 0.05 0.03 0.03 0.03 0.04 0.04 0.04 0.03 0.03 0.03 0.03
0.02 0.02 0.02 0.03 0.03 0.03 0.04 0.04 0.04 0.03 0.02 0.03 0.04 0.04 0.05 0.05 0.06 0.05 0.07 0.05 0.05 0.05 0.04 0.04 0.05 0.05 0.05 0.06 0.05 0.05 0.04 0.05 0.04 0.04 0.05 0.05 0.04 0.05 0.04 0.04 0.03 0.03 0.03
0.02 0.02 0.01 0.01 0.02 0.03 0.03 0.03 0.04 0.04 0.03 0.04 0.04 0.04 0.04 0.03 0.06 0.06 0.07 0.05 0.05 0.05 0.05 0.05 0.05 0.05 0.05 0.05 0.04 0.03 0.03 0.05 0.05 0.05 0.06 0.06 0.04 0.05 0.05 0.05 0.04 0.03 0.03
0.02 0.01 0.01 0.01 0.01 0.02 0.02 0.02 0.04 0.04 0.03 0.04 0.04 0.03 0.03 0.03 0.05 0.04 0.05 0.05 0.05 0.04 0.04 0.05 0.06 0.06 0.05 0.04 0.04 0.02 0.02 0.05 0.06 0.05 0.04 0.04 0.05 0.05 0.05 0.05 0.04 0.03 0.03
0.01 0.01 0.01 0.01 0.01 0.01 0.01 0.01 0.03 0.03 0.02 0.03 0.02 0.02 0.02 0.03 0.04 0.03 0.03 0.04 0.05 0.06 0.04 0.04 0.05 0.06 0.05 0.04 0.04 0.03 0.02 0.03 0.04 0.03 0.04 0.03 0.03 0.04 0.05 0.04 0.05 0.05 0.05
0.01 0.01 0.01 0.01 0.01 0.01 0.01 0.01 0.01 0.01 0.01 0.02 0.01 0.01 0.01 0.02 0.03 0.02 0.02 0.04 0.04 0.04 0.05 0.05 0.05 0.04 0.04 0.06 0.05 0.05 0.04 0.04 0.02 0.02 0.03 0.03 0.03 0.03 0.05 0.04 0.04 0.05 0.06
0.00 0.01 0.01 0.00 0.01 0.01 0.01 0.01 0.01 0.01 0.01 0.02 0.02 0.03 0.02 0.01 0.02 0.02 0.02 0.03 0.03 0.03 0.04 0.04 0.05 0.04 0.04 0.06 0.06 0.06 0.06 0.06 0.05 0.04 0.04 0.05 0.05 0.05 0.08 0.07 0.06 0.07 0.07
0.00 0.00 0.00 0.00 0.00 0.01 0.01 0.01 0.02 0.02 0.02 0.02 0.03 0.04 0.04 0.04 0.02 0.01 0.02 0.02 0.02 0.03 0.03 0.03 0.03 0.03 0.04 0.05 0.05 0.06 0.08 0.07 0.08 0.09 0.08 0.08 0.08 0.09 0.09 0.09 0.06 0.04 0.05
0.00 0.00 0.00 0.00 0.01 0.01 0.01 0.01 0.02 0.02 0.02 0.02 0.02 0.03 0.05 0.05 0.04 0.03 0.03 0.02 0.03 0.03 0.04 0.04 0.02 0.03 0.03 0.03 0.06 0.08 0.08 0.09 0.08 0.11 0.10 0.11 0.11 0.11 0.10 0.07 0.07 0.06 0.05
0.00 0.00 0.00 0.00 0.01 0.01 0.00 0.00 0.01 0.01 0.01 0.02 0.03 0.03 0.04 0.05 0.05 0.04 0.03 0.03 0.03 0.03 0.04 0.04 0.03 0.03 0.03 0.03 0.04 0.05 0.07 0.09 0.08 0.10 0.13 0.17 0.15 0.12 0.10 0.10 0.11 0.10 0.08
0.00 0.00 0.00 0.00 0.01 0.00 0.01 0.01 0.01 0.01 0.01 0.02 0.03 0.03 0.02 0.03 0.05 0.06 0.04 0.03 0.03 0.03 0.04 0.05 0.04 0.03 0.04 0.04 0.03 0.05 0.06 0.07 0.06 0.11 0.13 0.15 0.14 0.13 0.11 0.11 0.10 0.11 0.09
0.00 0.00 0.00 0.00 0.00 0.00 0.00 0.01 0.01 0.01 0.01 0.01 0.02 0.03 0.03 0.02 0.02 0.03 0.03 0.03 0.03 0.03 0.04 0.06 0.06 0.05 0.05 0.05 0.07 0.07 0.08 0.07 0.06 0.05 0.07 0.10 0.09 0.09 0.09 0.09 0.11 0.12 0.11
0.00 0.00 0.00 0.00 0.00 0.00 0.00 0.01 0.01 0.02 0.02 0.03 0.02 0.02 0.02 0.03 0.02 0.02 0.02 0.02 0.02 0.04 0.04 0.08 0.08 0.06 0.05 0.06 0.08 0.09 0.07 0.06 0.05 0.04 0.04 0.05 0.06 0.06 0.06 0.08 0.12 0.13 0.09
0.00 0.00 0.00 0.00 0.01 0.00 0.00 0.01 0.02 0.03 0.02 0.02 0.01 0.01 0.01 0.02 0.02 0.02 0.01 0.02 0.02 0.03 0.04 0.05 0.06 0.04 0.05 0.05 0.06 0.06 0.05 0.04 0.04 0.04 0.05 0.04 0.04 0.05 0.06 0.06 0.05 0.05 0.04
MSLP
1014.61 1013.99 1013.49 1013.19 1013.08 1013.12 1013.23 1013.31 1013.31 1013.21 1013.02 1012.82 1012.67 1012.62 1012.70 1012.88 1013.12 1013.35 1013.50 1013.54 1013.47 1013.33 1013.19 1013.08 1013.07 1013.17 1013.37 1013.63 1013.90 1014.13 1014.31 1014.43 1014.52 1014.61 1014.72 1014.88 1015.09 1015.33 1015.58 1015.80 1015.99 1016.13 1016.23
1014.66 1014.08 1013.59 1013.27 1013.13 1013.12 1013.18 1013.23 1013.22 1013.13 1012.98 1012.83 1012.73 1012.74 1012.88 1013.11 1013.39 1013.67 1013.87 1013.98 1013.99 1013.92 1013.84 1013.78 1013.80 1013.89 1014.05 1014.25 1014.45 1014.63 1014.77 1014.87 1014.96 1015.05 1015.19 1015.36 1015.57 1015.79 1016.00 1016.17 1016.31 1016.40 1016.47
1014.60 1014.05 1013.59 1013.27 1013.11 1013.09 1013.13 1013.18 1013.19 1013.14 1013.04 1012.95 1012.90 1012.94 1013.08 1013.31 1013.58 1013.85 1014.08 1014.22 1014.30 1014.31 1014.31 1014.33 1014.39 1014.49 1014.64 1014.80 1014.96 1015.09 1015.19 1015.28 1015.38 1015.49 1015.64 1015.83 1016.02 1016.21 1016.38 1016.50 1016.59 1016.65 1016.71
1014.42 1013.93 1013.51 1013.22 1013.08 1013.07 1013.13 1013.21 1013.26 1013.26 1013.22 1013.18 1013.16 1013.21 1013.32 1013.50 1013.72 1013.95 1014.15 1014.31 1014.42 1014.52 1014.60 1014.70 1014.82 1014.96 1015.11 1015.25 1015.37 1015.47 1015.56 1015.65 1015.75 1015.89 1016.06 1016.25 1016.44 1016.60 1016.72 1016.80 1016.86 1016.90 1016.96
1014.17 1013.76 1013.41 1013.19 1013.10 1013.12 1013.22 1013.34 1013.44 1013.50 1013.52 1013.51 1013.51 1013.54 1013.61 1013.72 1013.85 1014.01 1014.16 1014.31 1014.45 1014.60 1014.76 1014.94 1015.12 1015.30 1015.46 1015.59 1015.69 1015.78 1015.85 1015.95 1016.07 1016.24 1016.42 1016.62 1016.80 1016.94 1017.04 1017.09 1017.13 1017.17 1017.25
1013.94 1013.62 1013.37 1013.23 1013.21 1013.28 1013.42 1013.57 1013.71 1013.82 1013.88 1013.90 1013.91 1013.92 1013.94 1013.98 1014.04 1014.11 1014.21 1014.34 1014.49 1014.68 1014.89 1015.12 1015.35 1015.56 1015.73 1015.86 1015.95 1016.02 1016.10 1016.20 1016.35 1016.53 1016.74 1016.95 1017.12 1017.25 1017.33 1017.37 1017.41 1017.46 1017.57
1013.80 1013.60 1013.46 1013.41 1013.45 1013.57 1013.73 1013.90 1014.05 1014.17 1014.26 1014.31 1014.33 1014.33 1014.32 1014.32 1014.32 1014.33 1014.39 1014.48 1014.63 1014.83 1015.07 1015.33 1015.59 1015.81 1015.98 1016.11 1016.19 1016.25 1016.32 1016.43 1016.59 1016.80 1017.02 1017.24 1017.42 1017.54 1017.61 1017.65 1017.68 1017.75 1017.88
1013.82 1013.74 1013.71 1013.74 1013.84 1013.97 1014.12 1014.27 1014.41 1014.52 1014.60 1014.67 1014.71 1014.74 1014.74 1014.73 1014.71 1014.70 1014.72 1014.78 1014.91 1015.10 1015.34 1015.60 1015.86 1016.07 1016.24 1016.34 1016.41 1016.47 1016.54 1016.66 1016.83 1017.04 1017.28 1017.50 1017.68 1017.80 1017.87 1017.91 1017.95 1018.03 1018.17
1014.02 1014.04 1014.11 1014.21 1014.32 1014.44 1014.55 1014.64 1014.73 1014.80 1014.89 1014.97 1015.05 1015.12 1015.16 1015.18 1015.19 1015.18 1015.19 1015.24 1015.34 1015.50 1015.70 1015.93 1016.15 1016.34 1016.48 1016.57 1016.63 1016.67 1016.75 1016.87 1017.04 1017.26 1017.50 1017.72 1017.90 1018.02 1018.09 1018.13 1018.17 1018.25 1018.40
1014.36 1014.47 1014.60 1014.73 1014.84 1014.92 1014.96 1014.97 1014.99 1015.02 1015.08 1015.18 1015.31 1015.44 1015.56 1015.65 1015.70 1015.72 1015.73 1015.76 1015.83 1015.94 1016.09 1016.26 1016.44 1016.58 1016.69 1016.76 1016.81 1016.85 1016.93 1017.05 1017.23 1017.45 1017.68 1017.90 1018.07 1018.19 1018.26 1018.30 1018.34 1018.42 1018.55
1014.75 1014.92 1015.10 1015.24 1015.33 1015.35 1015.31 1015.24 1015.17 1015.16 1015.21 1015.33 1015.50 1015.71 1015.91 1016.08 1016.19 1016.24 1016.27 1016.27 1016.29 1016.34 1016.43 1016.53 1016.65 1016.75 1016.83 1016.89 1016.93 1016.98 1017.06 1017.18 1017.36 1017.57 1017.79 1018.00 1018.17 1018.29 1018.36 1018.41 1018.45 1018.52 1018.63
1015.10 1015.31 1015.51 1015.65 1015.70 1015.66 1015.56 1015.42 1015.30 1015.24 1015.28 1015.42 1015.65 1015.92 1016.19 1016.42 1016.59 1016.68 1016.70 1016.69 1016.66 1016.65 1016.66 1016.70 1016.76 1016.82 1016.88 1016.93 1016.97 1017.03 1017.12 1017.24 1017.41 1017.61 1017.82 1018.02 1018.18 1018.30 1018.39 1018.44 1018.49 1018.56 1018.66
1015.34 1015.57 1015.77 1015.89 1015.92 1015.85 1015.70 1015.53 1015.37 1015.30 1015.34 1015.50 1015.75 1016.06 1016.38 1016.66 1016.85 1016.97 1016.99 1016.95 1016.89 1016.82 1016.77 1016.76 1016.77 1016.80 1016.84 1016.89 1016.95 1017.02 1017.11 1017.23 1017.39 1017.57 1017.76 1017.95 1018.11 1018.24 1018.33 1018.41 1018.48 1018.55 1018.64
1015.45 1015.67 1015.86 1015.97 1015.99 1015.91 1015.76 1015.58 1015.43 1015.36 1015.41 1015.58 1015.84 1016.16 1016.49 1016.77 1016.98 1017.09 1017.11 1017.06 1016.97 1016.87 1016.78 1016.73 1016.72 1016.73 1016.77 1016.82 1016.88 1016.96 1017.05 1017.16 1017.30 1017.46 1017.62 1017.79 1017.95 1018.09 1018.21 1018.31 1018.41 1018.49 1018.59
1015.45 1015.64 1015.80 1015.90 1015.92 1015.86 1015.74 1015.61 1015.50 1015.46 1015.51 1015.67 1015.92 1016.21 1016.51 1016.78 1016.97 1017.07 1017.09 1017.03 1016.94 1016.84 1016.74 1016.68 1016.65 1016.66 1016.70 1016.75 1016.82 1016.89 1016.97 1017.07 1017.17 1017.30 1017.43 1017.58 1017.72 1017.87 1018.02 1018.15 1018.28 1018.39 1018.50
1015.41 1015.55 1015.67 1015.75 1015.78 1015.76 1015.70 1015.63 1015.58 1015.57 1015.64 1015.78 1015.98 1016.22 1016.46 1016.68 1016.84 1016.93 1016.95 1016.92 1016.85 1016.78 1016.71 1016.66 1016.64 1016.66 1016.69 1016.74 1016.80 1016.85 1016.91 1016.97 1017.04 1017.12 1017.21 1017.32 1017.45 1017.60 1017.77 1017.93 1018.09 1018.24 1018.35
1015.42 1015.48 1015.54 1015.59 1015.63 1015.65 1015.66 1015.67 1015.68 1015.71 1015.78 1015.89 1016.02 1016.18 1016.34 1016.49 1016.62 1016.70 1016.75 1016.76 1016.75 1016.73 1016.71 1016.70 1016.71 1016.73 1016.76 1016.80 1016.84 1016.87 1016.89 1016.91 1016.93 1016.95 1016.99 1017.06 1017.16 1017.30 1017.46 1017.65 1017.84 1018.01 1018.14
1015.53 1015.50 1015.48 1015.49 1015.52 1015.58 1015.65 1015.72 1015.79 1015.86 1015.92 1015.97 1016.03 1016.10 1016.17 1016.25 1016.33 1016.42 1016.51 1016.58 1016.65 1016.70 1016.75 1016.79 1016.82 1016.85 1016.88 1016.90 1016.92 1016.92 1016.91 1016.88 1016.85 1016.82 1016.80 1016.82 1016.87 1016.98 1017.13 1017.32 1017.52 1017.71 1017.87
1015.77 1015.63 1015.52 1015.47 1015.47 1015.54 1015.66 1015.78 1015.90 1015.99 1016.03 1016.03 1016.01 1015.97 1015.95 1015.96 1016.01 1016.11 1016.23 1016.38 1016.53 1016.67 1016.78 1016.87 1016.94 1016.98 1017.00 1017.01 1017.00 1016.98 1016.94 1016.88 1016.81 1016.72 1016.65 1016.61 1016.61 1016.67 1016.79 1016.95 1017.15 1017.35 1017.53
1016.10 1015.85 1015.64 1015.51 1015.48 1015.55 1015.68 1015.84 1015.99 1016.09 1016.11 1016.06 1015.95 1015.83 1015.72 1015.66 1015.68 1015.78 1015.94 1016.15 1016.37 1016.58 1016.76 1016.89 1016.97 1017.02 1017.04 1017.05 1017.04 1017.01 1016.96 1016.89 1016.79 1016.68 1016.56 1016.46 1016.39 1016.39 1016.45 1016.58 1016.76 1016.96 1017.15
1016.42 1016.09 1015.79 1015.58 1015.51 1015.56 1015.70 1015.89 1016.06 1016.16 1016.16 1016.06 1015.89 1015.68 1015.49 1015.38 1015.36 1015.45 1015.63 1015.88 1016.15 1016.40 1016.61 1016.77 1016.87 1016.93 1016.96 1016.97 1016.97 1016.97 1016.94 1016.89 1016.80 1016.67 1016.52 1016.36 1016.24 1016.16 1016.16 1016.24 1016.39 1016.58 1016.77
1016.66 1016.26 1015.89 1015.63 1015.52 1015.55 1015.70 1015.90 1016.09 1016.19 1016.18 1016.05 1015.82 1015.56 1015.31 1015.13 1015.07 1015.13 1015.30 1015.56 1015.84 1016.11 1016.33 1016.49 1016.60 1016.66 1016.70 1016.74 1016.78 1016.83 1016.85 1016.85 1016.79 1016.68 1016.51 1016.33 1016.15 1016.01 1015.94 1015.96 1016.06 1016.24 1016.44
1016.70 1016.29 1015.89 1015.60 1015.46 1015.49 1015.65 1015.86 1016.07 1016.19 1016.18 1016.04 1015.78 1015.47 1015.17 1014.94 1014.83 1014.84 1014.98 1015.20 1015.46 1015.70 1015.91 1016.06 1016.16 1016.22 1016.29 1016.37 1016.47 1016.58 1016.69 1016.76 1016.76 1016.69 1016.54 1016.33 1016.11 1015.92 1015.79 1015.76 1015.82 1015.98 1016.19
1016.53 1016.13 1015.74 1015.45 1015.32 1015.35 1015.52 1015.76 1015.99 1016.14 1016.15 1016.01 1015.75 1015.42 1015.08 1014.81 1014.64 1014.60 1014.68 1014.84 1015.04 1015.23 1015.39 1015.51 1015.59 1015.67 1015.76 1015.89 1016.05 1016.25 1016.45 1016.60 1016.68 1016.67 1016.55 1016.36 1016.12 1015.90 1015.73 1015.65 1015.68 1015.82 1016.04
1016.14 1015.80 1015.45 1015.19 1015.08 1015.13 1015.31 1015.58 1015.84 1016.01 1016.06 1015.94 1015.70 1015.37 1015.01 1014.71 1014.49 1014.39 1014.40 1014.49 1014.62 1014.75 1014.85 1014.93 1014.99 1015.06 1015.17 1015.34 1015.58 1015.85 1016.13 1016.38 1016.54 1016.59 1016.53 1016.36 1016.14 1015.91 1015.73 1015.63 1015.65 1015.77 1015.99
1015.63 1015.35 1015.06 1014.84 1014.75 1014.82 1015.02 1015.30 1015.59 1015.80 1015.88 1015.80 1015.59 1015.28 1014.93 1014.61 1014.36 1014.21 1014.16 1014.18 1014.23 1014.29 1014.34 1014.38 1014.41 1014.48 1014.60 1014.80 1015.08 1015.41 1015.76 1016.07 1016.31 1016.43 1016.43 1016.32 1016.14 1015.93 1015.77 1015.68 1015.70 1015.83 1016.05
Thickness
5758 5762 5763 5764 5765 5765 5766 5766 5767 5768 5768 5769 5769 5768 5767 5766 5765 5765 5764 5763 5762 5761 5760 5759 5758 5758 5757 5756 5754 5753 5753 5752 5751 5750 5749 5748 5747 5746 5745 5744 5743 5742 5741
5761 5762 5763 5763 5764 5764 5765 5766 5766 5767 5767 5767 5767 5767 5766 5765 5763 5763 5762 5761 5760 5759 5758 5757 5756 5755 5755 5754 5753 5752 5751 5750 5749 5748 5748 5747 5746 5745 5744 5743 5742 5741 5740
5763 5762 5763 5763 5763 5764 5764 5765 5765 5766 5766 5766 5766 5765 5764 5763 5762 5761 5760 5759 5759 5758 5756 5755 5754 5753 5753 5752 5751 5750 5750 5749 5747 5747 5746 5745 5744 5744 5743 5742 5741 5740 5739
5763 5763 5763 5762 5763 5763 5763 5764 5764 5764 5764 5764 5764 5763 5762 5761 5761 5760 5759 5758 5757 5756 5755 5754 5754 5753 5751 5751 5750 5749 5749 5748 5746 5746 5745 5744 5743 5742 5742 5741 5740 5739 5737
5764 5764 5763 5762 5762 5762 5762 5763 5763 5763 5763 5762 5762 5761 5761 5760 5759 5759 5758 5756 5755 5754 5754 5753 5753 5752 5751 5750 5750 5748 5748 5747 5746 5745 5744 5743 5742 5742 5741 5740 5739 5737 5736
5764 5764 5763 5763 5762 5762 5762 5761 5762 5761 5761 5761 5760 5760 5759 5758 5757 5757 5757 5756 5755 5753 5753 5752 5752 5751 5750 5749 5749 5748 5747 5746 5745 5744 5744 5743 5742 5741 5740 5739 5738 5736 5735
5764 5764 5763 5762 5762 5761 5761 5760 5760 5760 5760 5759 5758 5758 5757 5756 5756 5755 5755 5755 5754 5752 5752 5751 5751 5750 5750 5749 5749 5748 5747 5746 5745 5744 5743 5742 5741 5741 5740 5739 5737 5736 5734
5766 5764 5763 5762 5761 5760 5760 5760 5759 5759 5758 5758 5757 5756 5756 5755 5754 5754 5754 5753 5753 5752 5751 5751 5750 5750 5749 5749 5749 5748 5747 5746 5745 5744 5743 5742 5741 5740 5739 5738 5737 5735 5734
5766 5764 5762 5761 5760 5760 5759 5758 5758 5757 5757 5756 5755 5755 5754 5754 5753 5753 5752 5752 5751 5751 5750 5750 5750 5749 5749 5748 5748 5748 5747 5745 5744 5743 5742 5741 5740 5740 5739 5738 5736 5735 5733
5765 5763 5762 5761 5760 5759 5758 5758 5757 5757 5756 5755 5755 5754 5753 5753 5753 5752 5751 5751 5750 5750 5750 5749 5749 5749 5749 5748 5747 5747 5746 5745 5743 5743 5742 5741 5740 5740 5739 5737 5736 5735 5733
5763 5763 5762 5760 5759 5758 5758 5757 5756 5756 5755 5755 5754 5753 5753 5752 5751 5751 5750 5750 5750 5749 5749 5749 5748 5748 5748 5747 5747 5746 5745 5744 5743 5742 5742 5741 5740 5739 5738 5737 5736 5734 5733
5762 5762 5762 5761 5760 5758 5758 5757 5756 5755 5755 5754 5753 5753 5752 5751 5750 5750 5750 5750 5750 5749 5749 5748 5748 5747 5747 5747 5746 5745 5745 5744 5743 5742 5742 5741 5740 5739 5738 5737 5735 5734 5732
5766 5765 5764 5763 5761 5759 5758 5757 5756 5755 5755 5754 5753 5753 5752 5751 5750 5750 5750 5750 5750 5749 5749 5748 5748 5748 5747 5747 5746 5746 5745 5744 5743 5743 5742 5741 5741 5740 5738 5737 5735 5734 5732
5769 5767 5766 5765 5763 5761 5760 5758 5757 5756 5755 5754 5754 5754 5753 5751 5750 5750 5750 5750 5749 5749 5748 5748 5748 5747 5747 5747 5746 5746 5745 5744 5743 5743 5742 5742 5741 5739 5738 5737 5735 5733 5731
5770 5769 5768 5767 5765 5763 5761 5760 5758 5757 5757 5756 5755 5754 5753 5752 5751 5751 5751 5750 5749 5749 5749 5749 5748 5748 5748 5748 5747 5746 5746 5745 5744 5743 5742 5742 5741 5739 5738 5736 5735 5733 5731
5772 5771 5770 5769 5767 5765 5763 5761 5760 5759 5758 5757 5756 5755 5754 5753 5753 5752 5751 5751 5750 5750 5750 5749 5749 5748 5748 5748 5748 5747 5746 5745 5744 5743 5742 5741 5739 5738 5737 5736 5734 5733 5731
5775 5774 5772 5771 5769 5766 5765 5763 5762 5760 5759 5758 5757 5756 5755 5754 5754 5752 5751 5751 5751 5751 5750 5750 5749 5749 5748 5748 5747 5747 5746 5745 5743 5742 5741 5740 5739 5738 5737 5736 5734 5733 5731
5778 5775 5774 5773 5770 5768 5766 5765 5763 5762 5760 5759 5758 5757 5756 5756 5755 5754 5753 5752 5752 5751 5751 5750 5748 5747 5746 5746 5745 5746 5745 5744 5743 5741 5740 5739 5738 5737 5737 5735 5734 5733 5731
5781 5777 5774 5773 5770 5769 5768 5766 5764 5763 5761 5760 5759 5758 5757 5756 5756 5755 5754 5753 5752 5752 5750 5750 5748 5747 5745 5744 5744 5744 5744 5743 5742 5741 5739 5738 5737 5737 5736 5735 5733 5732 5730
5783 5780 5777 5774 5772 5770 5769 5767 5764 5763 5762 5761 5760 5759 5758 5757 5757 5756 5755 5754 5753 5752 5750 5749 5747 5747 5745 5744 5743 5742 5742 5742 5741 5739 5738 5738 5736 5736 5735 5733 5732 5730 5729
5784 5781 5778 5775 5773 5771 5768 5765 5763 5761 5761 5761 5761 5761 5760 5759 5758 5756 5755 5754 5753 5751 5749 5748 5747 5744 5742 5742 5738 5735 5737 5739 5738 5738 5738 5736 5735 5734 5732 5731 5729 5728 5726
5785 5782 5780 5777 5775 5774 5771 5769 5767 5765 5763 5763 5763 5762 5761 5760 5759 5757 5755 5754 5753 5751 5749 5748 5746 5743 5741 5741 5736 5730 5725 5727 5732 5736 5735 5734 5732 5731 5730 5728 5726 5725 5725
5787 5785 5784 5781 5779 5777 5775 5772 5770 5767 5764 5762 5762 5762 5762 5761 5760 5758 5756 5754 5753 5751 5748 5747 5746 5743 5739 5739 5739 5732 5723 5719 5722 5727 5730 5730 5729 5728 5727 5726 5724 5723 5722
5790 5790 5787 5784 5782 5780 5778 5774 5770 5765 5761 5762 5763 5763 5762 5762 5761 5759 5757 5755 5753 5751 5749 5748 5747 5744 5741 5737 5737 5736 5732 5728 5721 5718 5722 5725 5726 5725 5724 5723 5722 5720 5719
5795 5792 5790 5786 5784 5782 5780 5777 5773 5769 5767 5766 5765 5764 5762 5762 5761 5760 5758 5756 5754 5752 5750 5748 5746 5744 5742 5738 5736 5734 5731 5728 5726 5719 5715 5717 5719 5720 5720 5719 5719 5718 5716
5797 5795 5792 5787 5785 5784 5782 5780 5776 5772 5769 5767 5764 5762 5762 5761 5761 5760 5759 5757 5755 5752 5750 5748 5746 5744 5742 5740 5737 5735 5731 5727 5724 5721 5716 5714 5713 5714 5716 5716 5714 5714 5712